Regional Weather Roundup
Issued by NWS

Home | Current Version | Previous Version | Graphics & Text | Print | Product List | Glossary On
Versions: 1 2 3 4 5 6 7 8 9 10 11 12 13 14 15 16 17 18 19 20 21 22 23 24 25 26 27 28 29 30 31 32 33 34 35 36 37 38 39 40 41 42 43 44 45 46 47 48 49 50
000
ASUS43 KLMK 050202
RWRKY
KENTUCKY REGIONAL WEATHER ROUNDUP
NATIONAL WEATHER SERVICE LOUISVILLE KY
1000 PM EDT WED MAY 04 2016

NOTE "FAIR" INDICATES FEW OR NO CLOUDS BELOW 12,000 FEET
WITH NO SIGNIFICANT WEATHER AND/OR OBSTRUCTIONS TO VISIBILITY.

KYZ001>023-026-027-061>063-070>075-050300-
WESTERN AND SOUTH CENTRAL KENTUCKY

CITY           SKY/WX    TMP DP  RH WIND       PRES   REMARKS
PADUCAH        PTCLDY    59  40  49 N9        29.86R
HENDERSON      CLOUDY    55  37  50 N6        29.85R
OWENSBORO      CLOUDY    56  41  57 N13       29.84R
HOPKINSVILLE   PTCLDY    55  42  62 NW7       29.84R
BOWLING GREEN  CLOUDY    57  40  52 N9G18     29.82R
GLASGOW        NOT AVBL
$$

KYZ024-025-028>034-038-045-046-053-050300-
NORTH CENTRAL KENTUCKY

CITY           SKY/WX    TMP DP  RH WIND       PRES   REMARKS
LOUISVILLE/SDF PTCLDY    54  40  59 NW12      29.79R
LOUISVILLE/LOU CLOUDY    54  41  61 N6        29.79R
FORT KNOX      PTCLDY    50  42  72 N7        29.78R
$$

KYZ035>037-039>044-047>052-055>060-089>105-050300-
NORTHEAST KENTUCKY

CITY           SKY/WX    TMP DP  RH WIND       PRES   REMARKS
LEXINGTON      CLOUDY    52  39  61 N10G21    29.76R
COVINGTON      PTCLDY    47  36  65 NW10      29.76R
FRANKFORT      CLOUDY    52  38  58 N12G17    29.77R
$$

KYZ054-064>069-076>088-106>120-050300-
SOUTHEAST KENTUCKY

CITY           SKY/WX    TMP DP  RH WIND       PRES   REMARKS
JACKSON        PTCLDY    48  44  86 W5        29.73R
LONDON         PTCLDY    47  45  93 CALM      29.75R
SOMERSET       NOT AVBL
MIDDLESBORO    PTCLDY    47  47 100 CALM      29.76S
MONTICELLO     PTCLDY    49  46  90 NW5       29.78R
$$




USA.gov is the U.S. government's official web portal to all federal, state and local government web resources and services.